Simultaneous Nadir Overpasses (SNOs) Predictions

Prediction of SNOs between AQUA and NOAA-19 Satellite Orbit:

Table of predicted SNOs for the next 14.0 days since TLE Epoch: 4/13/2024
Index Date (AQUA) Time (AQUA) Lat,Lon (AQUA) SZA (AQUA ) Date (NOAA-19) Time (NOAA-19) Lat,Lon (NOAA-19) SZA (NOAA-19 ) Distance(km) Time Diff (sec)
1 04/15/2024 02:06:31 75.78, 144.84 65.83 04/15/2024 02:05:26 75.78, 144.84 65.84 0.29 65
2 04/15/2024 02:55:54 -75.83, -47.65 114.14 04/15/2024 02:56:24 -75.83, -47.75 114.14 2.53 30
3 04/17/2024 06:46:33 75.83, 74.72 65.10 04/17/2024 06:46:28 75.84, 74.82 65.11 2.96 5
4 04/19/2024 10:37:10 -75.81,-162.85 115.67 04/19/2024 10:36:34 -75.80,-162.78 115.68 2.63 36
5 04/19/2024 11:26:34 75.86, 4.65 64.38 04/19/2024 11:27:31 75.84, 4.62 64.35 2.69 57
6 04/21/2024 14:27:47 75.79, -40.41 63.57 04/21/2024 14:26:37 75.78, -40.30 63.57 3.21 70
7 04/21/2024 15:17:10 -75.84, 127.12 116.40 04/21/2024 15:17:37 -75.82, 127.09 116.41 1.84 27
8 04/23/2024 19:07:46 75.80,-110.40 62.85 04/23/2024 19:07:39 75.81,-110.39 62.87 1.26 7
9 04/25/2024 22:58:21 -75.80, 12.01 117.86 04/25/2024 22:57:46 -75.79, 12.05 117.87 1.46 35



Historial Predications of SNOs between AQUA and NOAA-19
